TimeEDT,TemperatureF,Dew PointF,Humidity,Sea Level PressureIn,VisibilityMPH,Wind Direction,Wind SpeedMPH,Gust SpeedMPH,PrecipitationIn,Events,Conditions,WindDirDegrees,DateUTC
12:17 AM,57.2,51.8,82,29.86,10.0,West,8.1,-,0.01,Rain,Light Rain,260,2012-10-06 04:17:00
12:29 AM,57.2,51.8,82,29.86,10.0,WSW,4.6,-,0.01,Rain,Light Rain,250,2012-10-06 04:29:00
12:42 AM,57.2,51.8,82,29.86,10.0,WSW,4.6,-,0.01,Rain,Light Rain,240,2012-10-06 04:42:00
12:56 AM,57.0,52.0,83,29.84,7.0,WSW,3.5,-,0.02,Rain,Light Rain,240,2012-10-06 04:56:00
1:17 AM,55.4,48.2,77,29.84,9.0,West,4.6,-,0.01,Rain,Light Rain,260,2012-10-06 05:17:00
1:56 AM,54.0,50.0,86,29.82,5.0,Calm,Calm,-,0.07,Rain,Light Rain,0,2012-10-06 05:56:00
2:24 AM,53.6,50.0,88,29.83,6.0,WSW,3.5,-,0.06,Rain,Light Rain,250,2012-10-06 06:24:00
2:56 AM,53.1,51.1,93,29.81,4.0,Calm,Calm,-,0.11,Rain,Rain,0,2012-10-06 06:56:00
3:33 AM,53.6,50.0,88,29.82,4.0,WNW,10.4,-,0.07,Rain,Rain,300,2012-10-06 07:33:00
3:56 AM,51.1,48.0,89,29.78,5.0,North,4.6,-,0.11,Rain,Rain,360,2012-10-06 07:56:00
4:28 AM,50.0,48.2,94,29.81,2.5,WNW,6.9,-,N/A,Rain,Rain,300,2012-10-06 08:28:00
4:36 AM,50.0,48.2,94,29.80,3.0,NW,3.5,-,0.14,Rain,Heavy Rain,320,2012-10-06 08:36:00
4:56 AM,50.0,48.0,93,29.78,3.0,NNW,3.5,-,0.21,Rain,Rain,330,2012-10-06 08:56:00
5:17 AM,50.0,48.2,94,29.79,5.0,WNW,4.6,-,N/A,Rain,Rain,290,2012-10-06 09:17:00
5:56 AM,48.9,48.0,97,29.80,6.0,WNW,9.2,-,0.13,Rain,Rain,290,2012-10-06 09:56:00
6:05 AM,48.2,46.4,93,29.79,4.0,NW,8.1,-,0.03,Rain,Rain,310,2012-10-06 10:05:00
6:13 AM,48.2,46.4,93,29.80,4.0,WNW,6.9,-,0.07,Rain,Heavy Rain,290,2012-10-06 10:13:00
6:26 AM,48.2,46.4,93,29.81,3.0,West,5.8,-,0.11,Rain,Rain,280,2012-10-06 10:26:00
6:46 AM,48.2,46.4,93,29.82,2.5,West,3.5,-,0.20,Rain,Heavy Rain,260,2012-10-06 10:46:00
6:56 AM,48.0,46.9,96,29.82,3.0,WNW,3.5,-,0.23,Rain,Rain,290,2012-10-06 10:56:00
7:29 AM,48.2,46.4,93,29.82,4.0,Calm,Calm,-,0.07,Rain,Rain,0,2012-10-06 11:29:00
7:56 AM,48.9,46.9,93,29.81,9.0,Calm,Calm,-,0.10,Rain,Light Rain,0,2012-10-06 11:56:00
8:38 AM,48.2,46.4,93,29.81,9.0,Calm,Calm,-,0.01,Rain,Light Rain,0,2012-10-06 12:38:00
8:49 AM,48.2,48.2,100,29.81,7.0,Calm,Calm,-,0.02,Rain,Light Rain,0,2012-10-06 12:49:00
8:56 AM,48.9,48.0,97,29.81,7.0,Calm,Calm,-,0.02,Rain,Light Rain,0,2012-10-06 12:56:00
9:17 AM,50.0,48.2,94,29.82,3.0,NW,3.5,-,0.00,Rain,Light Rain,310,2012-10-06 13:17:00
9:43 AM,50.0,48.2,94,29.82,6.0,Calm,Calm,-,0.01,Rain,Light Rain,0,2012-10-06 13:43:00
9:56 AM,50.0,48.0,93,29.81,8.0,Calm,Calm,-,0.01,Rain,Light Rain,0,2012-10-06 13:56:00
10:05 AM,50.0,48.2,94,29.82,9.0,Calm,Calm,-,N/A,Rain,Light Rain,0,2012-10-06 14:05:00
10:25 AM,51.8,48.2,88,29.82,10.0,SW,3.5,-,0.01,,Overcast,220,2012-10-06 14:25:00
10:33 AM,51.8,48.2,88,29.82,10.0,Calm,Calm,-,0.01,,Overcast,0,2012-10-06 14:33:00
10:56 AM,51.1,48.9,92,29.82,10.0,South,3.5,-,0.01,,Overcast,180,2012-10-06 14:56:00
11:39 AM,51.8,50.0,94,29.82,5.0,Calm,Calm,-,0.00,Rain,Light Rain,0,2012-10-06 15:39:00
11:49 AM,51.8,48.2,88,29.82,9.0,SW,3.5,-,0.00,Rain,Light Rain,230,2012-10-06 15:49:00
11:56 AM,52.0,48.0,86,29.82,10.0,SSW,4.6,-,0.00,,Overcast,210,2012-10-06 15:56:00
12:56 PM,54.0,44.1,69,29.82,10.0,West,9.2,-,N/A,,Overcast,260,2012-10-06 16:56:00
1:56 PM,55.9,44.1,64,29.81,10.0,WSW,17.3,27.6,N/A,,Mostly Cloudy,240,2012-10-06 17:56:00
2:56 PM,57.0,43.0,59,29.82,10.0,WSW,21.9,29.9,N/A,,Mostly Cloudy,250,2012-10-06 18:56:00
3:56 PM,57.0,39.0,51,29.83,10.0,WSW,20.7,35.7,N/A,,Partly Cloudy,250,2012-10-06 19:56:00
4:56 PM,54.0,39.9,59,29.85,10.0,West,24.2,32.2,N/A,,Overcast,260,2012-10-06 20:56:00
5:56 PM,54.0,39.0,57,29.87,10.0,West,23.0,35.7,N/A,,Overcast,260,2012-10-06 21:56:00
6:56 PM,53.1,39.0,59,29.89,10.0,West,19.6,29.9,N/A,,Mostly Cloudy,260,2012-10-06 22:56:00
7:56 PM,53.1,39.9,61,29.91,10.0,West,16.1,23.0,N/A,,Overcast,260,2012-10-06 23:56:00
8:56 PM,50.0,41.0,71,29.93,10.0,West,11.5,21.9,0.01,Rain,Light Rain,270,2012-10-07 00:56:00
9:56 PM,51.1,39.0,63,29.95,10.0,WNW,13.8,20.7,0.00,,Overcast,290,2012-10-07 01:56:00
10:56 PM,50.0,39.9,68,29.97,10.0,West,10.4,-,N/A,,Overcast,270,2012-10-07 02:56:00
11:56 PM,48.9,39.9,71,29.99,10.0,WNW,6.9,-,N/A,,Overcast,300,2012-10-07 03:56:00